| time (UTC) | temp C | wind direction | speed KPH | gust KPH | rain 1hr cm | rain 24hr cm | rain mn cm | humidity % | barometer mb |
| 20260504211107 | 16 | 70 | 9.7 | 19.3 | 0.00 | 0.00 | 0.00 | 40 | 1012.7 |
| 20260504210607 | 16 | 95 | 11.3 | 20.9 | 0.00 | 0.00 | 0.00 | 41 | 1012.7 |
| 20260504210106 | 16 | 18 | 14.5 | 20.9 | 0.00 | 0.00 | 0.00 | 43 | 1012.8 |
| 20260504205605 | 16 | 83 | 16.1 | 25.7 | 0.00 | 0.00 | 0.00 | 41 | 1012.7 |
| 20260504205105 | 16 | 86 | 14.5 | 25.7 | 0.00 | 0.00 | 0.00 | 41 | 1012.8 |
| 20260504204606 | 17 | 52 | 8.0 | 19.3 | 0.00 | 0.00 | 0.00 | 39 | 1012.9 |
| 20260504204105 | 17 | 69 | 4.8 | 12.9 | 0.00 | 0.00 | 0.00 | 38 | 1012.8 |
| 20260504203605 | 17 | 338 | 3.2 | 12.9 | 0.00 | 0.00 | 0.00 | 37 | 1012.7 |
| 20260504203102 | 17 | 38 | 6.4 | 14.5 | 0.00 | 0.00 | 0.00 | 40 | 1012.7 |
| 20260504202601 | 17 | 55 | 6.4 | 16.1 | 0.00 | 0.00 | 0.00 | 42 | 1012.7 |
| 20260504201601 | 16 | 72 | 11.3 | 17.7 | 0.00 | 0.00 | 0.00 | 42 | 1012.8 |
| 20260504201101 | 16 | 74 | 11.3 | 17.7 | 0.00 | 0.00 | 0.00 | 44 | 1012.9 |
| 20260504200601 | 16 | 51 | 8.0 | 17.7 | 0.00 | 0.00 | 0.00 | 42 | 1012.9 |
| 20260504200101 | 16 | 73 | 8.0 | 17.7 | 0.00 | 0.00 | 0.00 | 43 | 1012.8 |
| 20260504195601 | 16 | 140 | 9.7 | 19.3 | 0.00 | 0.00 | 0.00 | 42 | 1012.8 |
| 20260504194603 | 16 | 37 | 11.3 | 22.5 | 0.00 | 0.00 | 0.00 | 38 | 1012.9 |
| 20260504194101 | 17 | 70 | 8.0 | 14.5 | 0.00 | 0.00 | 0.00 | 43 | 1012.7 |
| 20260504193602 | 17 | 36 | 6.4 | 14.5 | 0.00 | 0.00 | 0.00 | 40 | 1012.8 |
| 20260504193102 | 17 | 317 | 8.0 | 19.3 | 0.00 | 0.00 | 0.00 | 40 | 1012.9 |
| 20260504192602 | 17 | 121 | 11.3 | 19.3 | 0.00 | 0.00 | 0.00 | 38 | 1012.8 |
| 20260504192101 | 17 | 82 | 11.3 | 20.9 | 0.00 | 0.00 | 0.00 | 39 | 1012.9 |
| 20260504191600 | 17 | 74 | 8.0 | 20.9 | 0.00 | 0.00 | 0.00 | 39 | 1013.1 |
| 20260504191103 | 17 | 86 | 6.4 | 17.7 | 0.00 | 0.00 | 0.00 | 39 | 1013.0 |
| 20260504190601 | 17 | 78 | 6.4 | 16.1 | 0.00 | 0.00 | 0.00 | 40 | 1013.0 |
| 20260504190105 | 17 | 109 | 8.0 | 16.1 | 0.00 | 0.00 | 0.00 | 41 | 1013.2 |
| 20260504185102 | 16 | 28 | 9.7 | 20.9 | 0.00 | 0.00 | 0.00 | 40 | 1013.2 |
| 20260504184600 | 16 | 48 | 6.4 | 17.7 | 0.00 | 0.00 | 0.00 | 40 | 1013.3 |
| 20260504184101 | 16 | 101 | 8.0 | 17.7 | 0.00 | 0.00 | 0.00 | 39 | 1013.2 |
| 20260504183102 | 16 | 67 | 12.9 | 20.9 | 0.00 | 0.00 | 0.00 | 41 | 1013.3 |
| 20260504182601 | 16 | 80 | 12.9 | 20.9 | 0.00 | 0.00 | 0.00 | 41 | 1013.4 |
| 20260504182101 | 16 | 103 | 14.5 | 24.1 | 0.00 | 0.00 | 0.00 | 43 | 1013.4 |
| 20260504181603 | 16 | 296 | 12.9 | 24.1 | 0.00 | 0.00 | 0.00 | 44 | 1013.4 |
| 20260504181102 | 16 | 74 | 11.3 | 19.3 | 0.00 | 0.00 | 0.00 | 42 | 1013.3 |
| 20260504175602 | 16 | 42 | 12.9 | 22.5 | 0.00 | 0.00 | 0.00 | 44 | 1013.4 |
| 20260504175059 | 15 | 56 | 16.1 | 22.5 | 0.00 | 0.00 | 0.00 | 43 | 1013.3 |
| 20260504174554 | 16 | 65 | 12.9 | 20.9 | 0.00 | 0.00 | 0.00 | 42 | 1013.3 |
| 20260504174048 | 16 | 55 | 6.4 | 20.9 | 0.00 | 0.00 | 0.00 | 44 | 1013.3 |
| 20260504173542 | 16 | 73 | 3.2 | 9.7 | 0.00 | 0.00 | 0.00 | 43 | 1013.3 |
| 20260504173035 | 16 | 67 | 1.6 | 9.7 | 0.00 | 0.00 | 0.00 | 42 | 1013.3 |
| 20260504172533 | 16 | 76 | 3.2 | 12.9 | 0.00 | 0.00 | 0.00 | 44 | 1013.3 |
| 20260504172034 | 15 | 267 | 4.8 | 14.5 | 0.00 | 0.00 | 0.00 | 42 | 1013.3 |
| 20260504171535 | 15 | 271 | 3.2 | 14.5 | 0.00 | 0.00 | 0.00 | 41 | 1013.3 |
| 20260504171033 | 16 | 194 | 3.2 | 6.4 | 0.00 | 0.00 | 0.00 | 41 | 1013.3 |
| 20260504151033 | 13 | 100 | 11.3 | 20.9 | 0.00 | 0.00 | 0.00 | 47 | 1013.4 |
| 20260504150533 | 13 | 23 | 12.9 | 22.5 | 0.00 | 0.00 | 0.00 | 47 | 1013.3 |
| 20260504140532 | 12 | 89 | 19.3 | 33.8 | 0.00 | 0.00 | 0.00 | 48 | 1013.1 |
| 20260504130531 | 12 | 86 | 20.9 | 35.4 | 0.00 | 0.00 | 0.00 | 48 | 1012.7 |
| 20260504110525 | 13 | 78 | 25.7 | 35.4 | 0.00 | 0.00 | 0.00 | 45 | 1012.1 |
| 20260504100517 | 13 | 11 | 19.3 | 37.0 | 0.00 | 0.00 | 0.00 | 43 | 1011.9 |
| 20260504081504 | 15 | 62 | 14.5 | 35.4 | 0.00 | 0.00 | 0.00 | 45 | 1010.3 |
| 20260504081005 | 15 | 89 | 11.3 | 27.4 | 0.00 | 0.00 | 0.00 | 48 | 1010.0 |
| 20260504050444 | 12 | 30 | 0.0 | 0.0 | 0.00 | 0.00 | 0.00 | 62 | 1008.6 |
| 20260504045943 | 13 | 30 | 0.0 | 1.6 | 0.00 | 0.00 | 0.00 | 64 | 1008.5 |
| 20260504045443 | 13 | 30 | 0.0 | 1.6 | 0.00 | 0.00 | 0.00 | 64 | 1008.6 |
| 20260504044943 | 13 | 30 | 0.0 | 1.6 | 0.00 | 0.00 | 0.00 | 65 | 1008.5 |
| 20260504044439 | 13 | 30 | 0.0 | 0.0 | 0.00 | 0.00 | 0.00 | 65 | 1008.5 |
| 20260504043939 | 14 | 30 | 0.0 | 0.0 | 0.00 | 0.00 | 0.00 | 58 | 1008.5 |
| 20260504043444 | 14 | 30 | 0.0 | 0.0 | 0.00 | 0.00 | 0.00 | 55 | 1008.4 |
| 20260504042941 | 15 | 30 | 0.0 | 0.0 | 0.00 | 0.00 | 0.00 | 54 | 1008.4 |
| 20260504042442 | 15 | 30 | 0.0 | 1.6 | 0.00 | 0.00 | 0.00 | 53 | 1008.4 |
| 20260504041942 | 15 | 30 | 0.0 | 1.6 | 0.00 | 0.00 | 0.00 | 52 | 1008.4 |
| 20260504041440 | 15 | 30 | 0.0 | 1.6 | 0.00 | 0.00 | 0.00 | 56 | 1008.4 |
| 20260504040939 | 16 | 30 | 0.0 | 1.6 | 0.00 | 0.00 | 0.00 | 55 | 1008.4 |
| 20260504040439 | 16 | 30 | 0.0 | 1.6 | 0.00 | 0.00 | 0.00 | 55 | 1008.5 |
| 20260504035438 | 16 | 30 | 0.0 | 3.2 | 0.00 | 0.00 | 0.00 | 49 | 1008.5 |
| 20260504034940 | 16 | 30 | 0.0 | 3.2 | 0.00 | 0.00 | 0.00 | 49 | 1008.4 |
| 20260504034439 | 16 | 302 | 0.0 | 3.2 | 0.00 | 0.00 | 0.00 | 48 | 1008.4 |
| 20260504033941 | 16 | 233 | 0.0 | 3.2 | 0.00 | 0.00 | 0.00 | 48 | 1008.3 |
| 20260504033440 | 16 | 227 | 0.0 | 1.6 | 0.00 | 0.00 | 0.00 | 51 | 1008.3 |
| 20260504032434 | 16 | 217 | 0.0 | 1.6 | 0.00 | 0.00 | 0.00 | 52 | 1008.3 |
| 20260504031934 | 16 | 217 | 0.0 | 1.6 | 0.00 | 0.00 | 0.00 | 52 | 1008.2 |
| 20260504030934 | 16 | 217 | 0.0 | 1.6 | 0.00 | 0.00 | 0.00 | 53 | 1008.1 |
| 20260504030434 | 17 | 205 | 0.0 | 1.6 | 0.00 | 0.00 | 0.00 | 52 | 1008.2 |
| 20260504025434 | 17 | 206 | 0.0 | 1.6 | 0.00 | 0.00 | 0.00 | 49 | 1008.2 |
| 20260504024935 | 18 | 200 | 0.0 | 0.0 | 0.00 | 0.00 | 0.00 | 50 | 1008.1 |
| 20260504024430 | 18 | 200 | 0.0 | 0.0 | 0.00 | 0.00 | 0.00 | 50 | 1008.2 |
| 20260504023929 | 18 | 198 | 0.0 | 0.0 | 0.00 | 0.00 | 0.00 | 48 | 1008.1 |
| 20260504023429 | 18 | 196 | 0.0 | 0.0 | 0.00 | 0.00 | 0.00 | 47 | 1008.1 |
| 20260504022930 | 19 | 196 | 0.0 | 0.0 | 0.00 | 0.00 | 0.00 | 45 | 1008.2 |
| 20260504022430 | 19 | 196 | 0.0 | 0.0 | 0.00 | 0.00 | 0.00 | 45 | 1008.2 |
| 20260504021929 | 19 | 200 | 0.0 | 0.0 | 0.00 | 0.00 | 0.00 | 44 | 1008.2 |
| 20260504021430 | 20 | 200 | 0.0 | 0.0 | 0.00 | 0.00 | 0.00 | 44 | 1008.1 |
| 20260504020930 | 20 | 200 | 0.0 | 0.0 | 0.00 | 0.00 | 0.00 | 44 | 1008.2 |
| 20260504020429 | 20 | 200 | 0.0 | 0.0 | 0.00 | 0.00 | 0.00 | 43 | 1008.2 |
| 20260504015932 | 21 | 200 | 0.0 | 0.0 | 0.00 | 0.00 | 0.00 | 43 | 1008.2 |
| 20260504015429 | 21 | 200 | 0.0 | 1.6 | 0.00 | 0.00 | 0.00 | 42 | 1008.2 |
| 20260504013929 | 23 | 207 | 0.0 | 3.2 | 0.00 | 0.00 | 0.00 | 37 | 1008.3 |
| 20260504012930 | 24 | 220 | 0.0 | 3.2 | 0.00 | 0.00 | 0.00 | 36 | 1008.2 |
| 20260504011930 | 23 | 211 | 0.0 | 1.6 | 0.00 | 0.00 | 0.00 | 36 | 1008.3 |
| 20260504011428 | 23 | 80 | 0.0 | 3.2 | 0.00 | 0.00 | 0.00 | 37 | 1008.3 |
| 20260504010925 | 23 | 152 | 1.6 | 3.2 | 0.00 | 0.00 | 0.00 | 35 | 1008.3 |
| 20260504010418 | 23 | 196 | 0.0 | 3.2 | 0.00 | 0.00 | 0.00 | 36 | 1008.2 |
| 20260504005911 | 24 | 246 | 0.0 | 1.6 | 0.00 | 0.00 | 0.00 | 36 | 1008.4 |
| 20260504005409 | 24 | 244 | 0.0 | 1.6 | 0.00 | 0.00 | 0.00 | 35 | 1008.4 |
| 20260504004910 | 24 | 264 | 1.6 | 4.8 | 0.00 | 0.00 | 0.00 | 34 | 1008.4 |
| 20260504004410 | 24 | 242 | 0.0 | 4.8 | 0.00 | 0.00 | 0.00 | 34 | 1008.5 |
| 20260504003911 | 24 | 34 | 0.0 | 3.2 | 0.00 | 0.00 | 0.00 | 34 | 1008.5 |
| 20260504003407 | 23 | 203 | 1.6 | 3.2 | 0.00 | 0.00 | 0.00 | 35 | 1008.6 |
| 20260504002905 | 23 | 236 | 0.0 | 4.8 | 0.00 | 0.00 | 0.00 | 35 | 1008.5 |
| 20260504002401 | 23 | 257 | 0.0 | 4.8 | 0.00 | 0.00 | 0.00 | 36 | 1008.6 |
| 20260504001902 | 23 | 229 | 0.0 | 1.6 | 0.00 | 0.00 | 0.00 | 33 | 1008.6 |
| 20260504001401 | 24 | 247 | 1.6 | 3.2 | 0.00 | 0.00 | 0.00 | 36 | 1008.7 |
| 20260504000902 | 25 | 222 | 1.6 | 3.2 | 0.00 | 0.00 | 0.00 | 33 | 1008.7 |
| 20260504000401 | 25 | 219 | 1.6 | 3.2 | 0.00 | 0.00 | 0.00 | 31 | 1008.6 |
| 20260503235902 | 26 | 238 | 1.6 | 6.4 | 0.00 | 0.00 | 0.00 | 32 | 1008.7 |
| 20260503235401 | 26 | 229 | 1.6 | 6.4 | 0.00 | 0.00 | 0.00 | 31 | 1008.6 |
| 20260503234901 | 26 | 210 | 1.6 | 4.8 | 0.00 | 0.00 | 0.00 | 29 | 1008.9 |
| 20260503234405 | 26 | 23 | 0.0 | 4.8 | 0.00 | 0.00 | 0.00 | 29 | 1009.0 |
| 20260503233405 | 25 | 139 | 1.6 | 3.2 | 0.00 | 0.00 | 0.00 | 31 | 1008.9 |
| 20260503232904 | 25 | 16 | 1.6 | 6.4 | 0.00 | 0.00 | 0.00 | 31 | 1009.1 |
| 20260503232401 | 25 | 113 | 1.6 | 6.4 | 0.00 | 0.00 | 0.00 | 32 | 1009.0 |
| 20260503231901 | 25 | 57 | 1.6 | 4.8 | 0.00 | 0.00 | 0.00 | 32 | 1009.2 |
| 20260503231401 | 25 | 130 | 1.6 | 6.4 | 0.00 | 0.00 | 0.00 | 34 | 1009.1 |
| 20260503230901 | 24 | 46 | 1.6 | 6.4 | 0.00 | 0.00 | 0.00 | 31 | 1009.2 |
| 20260503225901 | 24 | 225 | 1.6 | 8.0 | 0.00 | 0.00 | 0.00 | 36 | 1009.3 |
| 20260503225401 | 24 | 97 | 1.6 | 8.0 | 0.00 | 0.00 | 0.00 | 33 | 1009.5 |
| 20260503224902 | 24 | 210 | 1.6 | 6.4 | 0.00 | 0.00 | 0.00 | 32 | 1009.5 |
| 20260503223901 | 23 | 209 | 1.6 | 9.7 | 0.00 | 0.00 | 0.00 | 34 | 1009.5 |
| 20260503223401 | 23 | 109 | 3.2 | 4.8 | 0.00 | 0.00 | 0.00 | 35 | 1009.7 |
| 20260503222400 | 22 | 60 | 3.2 | 6.4 | 0.00 | 0.00 | 0.00 | 36 | 1010.1 |
| 20260503221901 | 22 | 63 | 3.2 | 6.4 | 0.00 | 0.00 | 0.00 | 34 | 1010.2 |
| 20260503221356 | 23 | 57 | 1.6 | 6.4 | 0.00 | 0.00 | 0.00 | 33 | 1010.2 |
| 20260503220849 | 23 | 301 | 1.6 | 4.8 | 0.00 | 0.00 | 0.00 | 32 | 1010.3 |
| 20260503220343 | 23 | 58 | 1.6 | 4.8 | 0.00 | 0.00 | 0.00 | 34 | 1010.3 |
| 20260503215837 | 23 | 63 | 3.2 | 6.4 | 0.00 | 0.00 | 0.00 | 35 | 1010.5 |
| 20260503215334 | 23 | 54 | 3.2 | 8.0 | 0.00 | 0.00 | 0.00 | 35 | 1010.6 |
| 20260503214334 | 23 | 252 | 1.6 | 9.7 | 0.00 | 0.00 | 0.00 | 34 | 1010.8 |
| 20260503213833 | 23 | 41 | 1.6 | 6.4 | 0.00 | 0.00 | 0.00 | 36 | 1010.8 |
| 20260503212832 | 22 | 54 | 3.2 | 6.4 | 0.00 | 0.00 | 0.00 | 36 | 1011.2 |
| 20260503212333 | 23 | 17 | 1.6 | 6.4 | 0.00 | 0.00 | 0.00 | 34 | 1011.3 |